Weather reports worldwide

Advertisment
Edinburgh/Gogarbank, United Kingdom (3166): temperature & dewpoint: 12.10.2018 18:00:00 - 18.10.2018 18:00:00 (BST)Edinburgh/Gogarbank, United Kingdom (3166): temperature -20cm & temperature -100cm: 12.10.2018 18:00:00 - 18.10.2018 18:00:00 (BST)Edinburgh/Gogarbank, United Kingdom (3166): wind speed & gusts: 12.10.2018 18:00:00 - 18.10.2018 18:00:00 (BST)Edinburgh/Gogarbank, United Kingdom (3166): wind direction: 12.10.2018 18:00:00 - 18.10.2018 18:00:00 (BST)Edinburgh/Gogarbank, United Kingdom (3166): reduced air pressure: 12.10.2018 18:00:00 - 18.10.2018 18:00:00 (BST)Edinburgh/Gogarbank, United Kingdom (3166): visibility: 12.10.2018 18:00:00 - 18.10.2018 18:00:00 (BST)Edinburgh/Gogarbank, United Kingdom (3166): sunshine duration: 12.10.2018 18:00:00 - 18.10.2018 18:00:00 (BST)Edinburgh/Gogarbank, United Kingdom (3166): precipitation: 12.10.2018 18:00:00 - 18.10.2018 18:00:00 (BST)
Date & Time tt [°C] td [°C] tt -20cm [°C] tt -100cm [°C] ff [km/h] ff [kn] fx [km/h] fx [kn] dd ppp [hPa] vv [km] sd [min] rr [mm]
18.10.2018 18:00:00 - - - - - - - - - - - - -
18.10.2018 17:00:00 10,8 3,6 - - 8 4 - - S 1026,8 35 24 0,0
18.10.2018 16:00:00 11,2 4,1 - - 9 5 - - SW 1027,2 35 30 0,0
18.10.2018 15:00:00 11,4 4,0 - - 15 8 - - SW 1027,4 40 42 0,0
18.10.2018 14:00:00 11,4 4,3 - - 11 6 - - WSW 1027,9 35 6 0,0
18.10.2018 13:00:00 11,2 6,0 - - 11 6 - - WSW 1028,4 30 42 0,0
18.10.2018 12:00:00 10,7 7,1 - - 13 7 - - W 1028,7 30 36 0,0
18.10.2018 11:00:00 9,1 7,1 - - 9 5 - - W 1029,0 29 0 0,0
18.10.2018 10:00:00 6,5 6,5 11,4 12,2 0 0 - - N 1028,9 22 0 0,0
18.10.2018 09:00:00 4,9 4,9 - - 5 3 - - W 1029,0 19 0 0,0
18.10.2018 08:00:00 3,0 3,0 - - 2 1 - - W 1028,4 20 0 0,0
18.10.2018 07:00:00 2,7 2,7 - - 4 2 - - S 1028,3 19 0 0,0
18.10.2018 06:00:00 1,0 0,9 - - 2 1 - - SSW 1028,1 15 0 0,0
18.10.2018 05:00:00 0,8 0,5 - - 4 2 - - NE 1027,6 10 0 0,0
18.10.2018 04:00:00 2,1 1,9 - - 2 1 - - S 1027,3 19 0 0,0
18.10.2018 03:00:00 1,9 1,1 - - 4 2 - - NW 1027,3 22 0 0,0
18.10.2018 02:00:00 4,2 3,4 - - 4 2 - - SSW 1026,9 23 0 0,0
18.10.2018 01:00:00 5,0 4,1 - - 8 4 - - SW 1026,6 22 - 0,0
18.10.2018 00:00:00 6,2 4,6 - - 13 7 - - SW 1026,3 23 0 0,0
17.10.2018 23:00:00 6,5 4,6 - - 11 6 - - WSW 1026,2 22 0 0,0
17.10.2018 22:00:00 6,6 4,5 - - 13 7 - - WSW 1025,5 25 0 0,0
17.10.2018 21:00:00 6,9 4,0 - - 11 6 - - SW 1024,6 26 0 0,0
17.10.2018 20:00:00 7,5 4,1 - - 9 5 - - SW 1023,6 27 0 0,0
17.10.2018 19:00:00 8,8 4,4 - - 11 6 - - WSW 1022,6 30 0 0,0
17.10.2018 18:00:00 10,8 4,8 - - 13 7 - - W 1021,7 30 54 0,0
17.10.2018 17:00:00 12,2 4,3 - - 15 8 - - W 1020,6 35 54 0,0
17.10.2018 16:00:00 12,9 4,2 - - 18 10 - - W 1019,8 35 60 0,0
17.10.2018 15:00:00 13,0 4,9 - - 21 11 - - W 1019,2 35 30 0,0
17.10.2018 14:00:00 13,2 5,5 - - 21 11 - - W 1018,5 35 30 0,0
17.10.2018 13:00:00 12,8 5,5 - - 21 11 - - W 1017,9 40 30 0,0
17.10.2018 12:00:00 12,9 8,0 - - 16 9 - - W 1017,0 40 36 0,0
17.10.2018 11:00:00 11,1 8,8 - - 18 10 - - WSW 1016,2 26 18 0,0
17.10.2018 10:00:00 10,1 8,0 11,7 12,2 16 9 - - SW 1015,3 25 0 0,0
17.10.2018 09:00:00 9,7 8,0 - - 16 9 - - WSW 1014,3 23 0 0,0
17.10.2018 08:00:00 9,2 7,7 - - 15 8 - - SW 1013,7 22 0 0,0
17.10.2018 07:00:00 9,6 8,1 - - 16 9 - - SW 1012,8 20 0 0,0
17.10.2018 06:00:00 10,0 8,3 - - 9 5 - - SW 1012,2 21 0 0,0
17.10.2018 05:00:00 11,4 9,5 - - 11 6 - - WSW 1011,4 20 0 0,0
17.10.2018 04:00:00 11,4 9,2 - - 15 8 - - SW 1010,8 21 0 0,0
17.10.2018 03:00:00 11,4 8,9 - - 15 8 - - SW 1010,7 19 0 0,0
17.10.2018 02:00:00 10,9 8,3 - - 16 9 - - WSW 1010,2 20 0 0,0
17.10.2018 01:00:00 10,8 8,5 - - 13 7 - - SW 1010,0 23 - 0,0
17.10.2018 00:00:00 11,4 8,9 - - 15 8 - - SW 1009,5 26 0 0,0
16.10.2018 23:00:00 11,1 8,9 - - 13 7 - - S 1009,1 27 0 0,0
16.10.2018 22:00:00 9,9 8,5 - - 4 2 - - S 1009,2 29 0 0,0
16.10.2018 21:00:00 11,1 9,6 - - 11 6 - - SW 1009,0 30 0 0,0
16.10.2018 20:00:00 11,7 9,9 - - 5 3 - - S 1008,9 35 0 0,0
16.10.2018 19:00:00 12,4 9,8 - - 5 3 - - WSW 1008,5 35 0 0,0
16.10.2018 18:00:00 13,0 10,5 - - 18 10 - - SW 1008,0 45 0 0,0
16.10.2018 17:00:00 13,0 10,1 - - 22 12 54 29 SW 1007,8 45 0 0,0
16.10.2018 16:00:00 13,7 10,2 - - 26 14 55 30 SW 1007,5 35 0 0,0
16.10.2018 15:00:00 14,6 8,2 - - 29 16 52 28 SW 1007,3 45 0 0,0
16.10.2018 14:00:00 15,3 8,8 - - 29 16 52 28 SSW 1007,3 45 12 0,0
16.10.2018 13:00:00 15,4 8,8 - - 29 16 48 26 SW 1007,7 40 12 0,0
16.10.2018 12:00:00 14,3 8,8 - - 21 11 - - SSW 1008,3 35 6 0,0
16.10.2018 11:00:00 13,7 8,8 - - 18 10 - - SW 1009,1 40 48 0,0
16.10.2018 10:00:00 11,1 9,2 11,7 12,4 2 1 - - ESE 1009,2 35 12 0,0
16.10.2018 09:00:00 8,7 7,3 - - 4 2 - - NNW 1010,2 26 0 0,0
16.10.2018 08:00:00 7,7 6,3 - - 2 1 - - NE 1010,6 27 0 0,0
16.10.2018 07:00:00 7,7 6,0 - - 4 2 - - NE 1011,0 29 0 0,0
16.10.2018 06:00:00 7,9 6,0 - - 5 3 - - SE 1011,4 30 0 0,0
16.10.2018 05:00:00 7,1 5,7 - - 5 3 - - E 1011,8 25 0 0,0
16.10.2018 04:00:00 5,9 4,9 - - 2 1 - - NE 1012,8 24 0 0,0
16.10.2018 03:00:00 6,1 4,1 - - 11 6 - - ESE 1013,2 28 0 0,0
16.10.2018 02:00:00 5,4 3,7 - - 2 1 - - ESE 1014,0 30 0 0,0
16.10.2018 01:00:00 6,4 3,9 - - 2 1 - - N 1014,3 29 - 0,0
16.10.2018 00:00:00 8,1 4,3 - - 8 4 - - S 1014,9 28 0 0,0
15.10.2018 23:00:00 6,1 3,1 - - 4 2 - - SSW 1015,3 28 0 0,0
15.10.2018 22:00:00 8,6 3,7 - - 8 4 - - S 1015,2 30 0 0,0
15.10.2018 21:00:00 7,6 3,7 - - 5 3 - - S 1015,4 29 0 0,0
15.10.2018 20:00:00 6,8 3,4 - - 5 3 - - S 1015,8 26 0 0,0
15.10.2018 19:00:00 8,1 4,6 - - 8 4 - - ESE 1015,1 28 6 0,0
15.10.2018 18:00:00 10,9 4,8 - - 9 5 - - ENE 1014,9 30 60 0,0
15.10.2018 17:00:00 12,9 5,1 - - 5 3 - - NE 1014,8 45 60 0,0
15.10.2018 16:00:00 14,2 2,9 - - 4 2 - - W 1014,7 35 60 0,0
15.10.2018 15:00:00 14,2 3,3 - - 2 1 - - SW 1015,1 40 60 0,0
15.10.2018 14:00:00 12,9 2,8 - - 8 4 - - W 1015,6 35 60 0,0
15.10.2018 13:00:00 11,8 5,5 - - 5 3 - - WNW 1015,9 30 60 0,0
15.10.2018 12:00:00 10,4 5,2 - - 2 1 - - ENE 1016,1 30 60 0,0
15.10.2018 11:00:00 6,9 5,2 - - 4 2 - - NW 1015,7 22 0 0,0
15.10.2018 10:00:00 6,3 4,9 12,0 12,4 2 1 - - SSW 1015,6 30 0 0,0
15.10.2018 09:00:00 4,9 4,5 - - 4 2 - - SSW 1015,2 30 0 0,0
15.10.2018 08:00:00 3,9 3,6 - - 2 1 - - WNW 1014,6 27 0 0,0
15.10.2018 07:00:00 4,1 3,8 - - 4 2 - - SSW 1014,4 30 0 0,0
15.10.2018 06:00:00 3,8 3,8 - - 8 4 - - SW 1014,3 28 0 0,0
15.10.2018 05:00:00 2,7 2,7 - - 2 1 - - WSW 1013,8 30 0 0,0
15.10.2018 04:00:00 2,0 1,8 - - 0 0 - - N 1013,8 29 0 0,0
15.10.2018 03:00:00 2,3 2,3 - - 4 2 - - SW 1014,0 30 0 0,0
15.10.2018 02:00:00 2,3 2,1 - - 2 1 - - WSW 1013,6 27 0 0,0
15.10.2018 01:00:00 2,7 2,4 - - 5 3 - - WNW 1013,2 30 - 0,0
15.10.2018 00:00:00 3,5 2,9 - - 2 1 - - N 1013,0 27 0 0,0
14.10.2018 23:00:00 4,3 3,8 - - 4 2 - - SE 1012,7 26 0 0,0
14.10.2018 22:00:00 4,7 3,4 - - 4 2 - - WSW 1012,2 27 0 0,0
14.10.2018 21:00:00 6,7 4,5 - - 9 5 - - SSW 1011,7 27 0 0,0
14.10.2018 20:00:00 6,5 3,8 - - 4 2 - - SSW 1011,0 28 0 0,0
14.10.2018 19:00:00 7,9 4,9 - - 8 4 - - SSW 1010,5 28 0 0,0
14.10.2018 18:00:00 10,9 3,8 - - 4 2 - - WSW 1009,4 35 54 0,0
14.10.2018 17:00:00 12,7 5,5 - - 2 1 - - NNE 1008,8 40 60 0,0
14.10.2018 16:00:00 13,0 4,6 - - 8 4 - - W 1008,6 35 42 0,0
14.10.2018 15:00:00 12,3 6,0 - - 8 4 - - WSW 1008,6 30 42 0,0
14.10.2018 14:00:00 11,7 8,2 - - 11 6 - - WSW 1008,7 30 12 0,0
14.10.2018 13:00:00 10,1 7,7 - - 9 5 - - W 1008,4 28 0 0,0
14.10.2018 12:00:00 9,5 7,5 - - 5 3 - - W 1008,0 29 0 0,0
14.10.2018 11:00:00 9,4 7,2 - - 5 3 - - W 1008,0 30 0 0,0
14.10.2018 10:00:00 8,3 7,1 12,5 12,4 4 2 - - ENE 1007,9 28 0 0,0
14.10.2018 09:00:00 8,4 6,6 - - 9 5 - - WSW 1006,9 30 0 0,0
14.10.2018 08:00:00 8,1 6,5 - - 11 6 - - WSW 1005,9 29 0 0,0
14.10.2018 07:00:00 8,0 6,5 - - 13 7 - - WSW 1005,6 30 0 0,0
14.10.2018 06:00:00 8,6 6,4 - - 21 11 - - WSW 1005,1 35 0 0,0
14.10.2018 05:00:00 8,6 6,7 - - 21 11 - - WSW 1003,6 40 0 0,0
14.10.2018 04:00:00 9,1 7,5 - - 21 11 - - SW 1002,4 35 0 0,0
14.10.2018 03:00:00 9,6 7,3 - - 21 11 - - WSW 1001,3 40 0 0,0
14.10.2018 02:00:00 10,4 8,0 - - 22 12 - - WSW 1000,4 40 0 0,0
14.10.2018 01:00:00 10,4 8,0 - - 21 11 - - WSW 999,3 45 - 0,0
14.10.2018 00:00:00 10,6 8,5 - - 18 10 - - WSW 998,0 45 0 0,0
13.10.2018 23:00:00 12,1 9,6 - - 21 11 - - WSW 996,5 45 0 0,0
13.10.2018 22:00:00 14,9 11,9 - - 24 13 54 29 SW 994,9 50 0 0,0
13.10.2018 21:00:00 15,5 13,3 - - 28 15 55 30 SSW 993,9 20 0 0,0
13.10.2018 20:00:00 16,0 13,1 - - 21 11 50 27 SSW 993,1 60 0 0,0
13.10.2018 19:00:00 16,2 13,9 - - 13 7 - - S 993,0 26 0 0,2
13.10.2018 18:00:00 16,9 14,1 - - 21 11 - - SSW 992,9 22 0 0,0
13.10.2018 17:00:00 13,7 13,5 - - 8 4 - - ENE 993,5 16 0 0,2
13.10.2018 16:00:00 13,5 13,1 - - 16 9 - - E 994,3 20 0 0,2
13.10.2018 15:00:00 13,3 13,3 - - 9 5 - - E 995,7 17 0 0,0
13.10.2018 14:00:00 12,8 12,8 - - 8 4 - - ENE 996,5 9 0 0,4
13.10.2018 13:00:00 12,6 12,6 - - 9 5 - - ENE 997,6 11 0 1,8
13.10.2018 12:00:00 12,3 12,3 - - 8 4 - - ENE 998,8 6 0 3,4
13.10.2018 11:00:00 12,1 12,0 - - 9 5 - - ENE 999,4 7 0 2,2
13.10.2018 10:00:00 11,8 11,7 12,4 12,4 9 5 - - E 1000,3 8 0 1,2
13.10.2018 09:00:00 11,4 11,2 - - 5 3 - - NE 1001,2 9 0 1,2
13.10.2018 08:00:00 10,9 10,3 - - 2 1 - - E 1001,7 11 0 0,6
13.10.2018 07:00:00 11,3 10,4 - - 8 4 - - SE 1001,6 15 0 0,0
13.10.2018 06:00:00 11,2 9,7 - - 5 3 - - N 1002,0 30 0 0,0
13.10.2018 05:00:00 12,4 9,7 - - 5 3 - - SW 1000,8 30 0 0,0
13.10.2018 04:00:00 12,4 9,8 - - 8 4 - - NW 1001,7 35 0 0,0
13.10.2018 03:00:00 13,1 9,8 - - 15 8 - - SSW 1001,4 35 0 0,0
13.10.2018 02:00:00 13,0 9,8 - - 13 7 - - SSW 1000,4 40 0 0,0
13.10.2018 01:00:00 13,5 9,6 - - 22 12 - - SSW 999,6 40 - 0,0
13.10.2018 00:00:00 13,7 9,8 - - 26 14 46 25 SW 998,7 40 0 0,0
12.10.2018 23:00:00 13,6 9,8 - - 26 14 50 27 SW 997,3 40 0 0,0
12.10.2018 22:00:00 13,9 10,0 - - 28 15 50 27 SW 996,0 45 0 0,0
12.10.2018 21:00:00 13,6 10,9 - - 26 14 48 26 SW 994,5 55 0 0,0
12.10.2018 20:00:00 13,4 11,0 - - 22 12 48 26 SW 993,7 60 0 0,0
12.10.2018 19:00:00 13,9 10,9 - - 28 15 50 27 SW 992,5 65 0 0,0
12.10.2018 18:00:00 13,7 11,3 - - 24 13 - - SSW 990,7 60 0 0,2

tt = temperature
td = dewpoint
tt -20cm = temperature -20cm
tt -100cm = temperature -100cm
ff = wind speed
fx = gusts
dd = wind direction
ppp = reduced air pressure
vv = visibility
sd = sunshine duration
rr = precipitation

Next stations